Live-Position
3D-Globus wird geladen...
Über Starlink 5842
Group: 3 satellites
Beschreibung wird geladen...
Nächste Überflüge
Passes for default location (London). Set your location on the main map for personalized predictions.
Höhenverlauf
Loading altitude history...
No altitude history available
Zweizeiliger Elementsatz
1 56491U 23064AV 26125.71017134 -.00002340 00000-0 -18839-3 0 9993
2 56491 70.0001 320.6834 0002385 265.9941 94.0946 14.98330692164777
Epoch: 5. Mai 2026 •
Age: 20 hours
Aktueller Status
Höhe 583.8 km
Geschwindigkeit 7.57 km/s
Subsatellitenpunkt 63.18°N,
37.2°E
Startdatum 10. Mai 2023
Alter 2.9 years
Typ internet
Startgruppe
Falcon 9 •
Group 2-9 •
49 satellites
Starlink 5990
56448
Starlink 5993 56449
Starlink 5970 56450
Starlink 5985 56451
Starlink 5986 56452
Starlink 5935 56453
Starlink 5959 56454
Starlink 5987 56455
Starlink 5995 56456
Starlink 5994 56457
Starlink 6050 56458
Starlink 6048 56459
Starlink 6047 56460
Starlink 6037 56461
Starlink 6045 56462
Starlink 6051 56463
Starlink 6043 56464
Starlink 6054 56465
Starlink 6053 56466
Starlink 6055 56467
...and 28 more
Technische Details
Klassifizierung Payload
Masse 305.00 kg
Trockenmasse 290.00 kg
Gesamtmasse 305.00 kg
Länge 0.20 m
Durchmesser 2.80 m
Spannweite 9.00 m
Form Box + pan
Hersteller SPXS
Bus-Typ Starlink
Phasenstatus In Orbit
Besitzer/Staat SPXS/US
Most Searched
Loading...